CASSIOPE (39265 NORAD) Tracking and Keplerian Element Data

This shows tracking and keplerian element data for the satellite.

Feedback or suggestion? Click here.




ElementValue
Catalog39265
NameCASSIOPE
Epoch Orbit59265
Epoch Day35.16340881
Epoch Year2025
RAAN294.0891
Inclination80.9468
Eccentricity0.042507
Argument of Perigee257.0486
Mean Anonmoly98.2948
Mean Motion14.88696821
Decay Rate0.00030959
L11 39265U 13055A 25035.16340881 .00030959 00000+0 54533-3 0 9993
L22 39265 80.9468 294.0891 0425070 257.0486 98.2948 14.88696821592655



Live tracking and technical data element details for CASSIOPE (NORAD 39265). CASSIOPE can be tracked NOW for your location showing map with azimuth and elevation plus other details from your city location.







IsCatalogInMostPopularTable: catalog: 39265, numindb: 611
Update: records affected: 1



GetName: 39265 CASSIOPE

Hit Count: updated at: Thu, 15 May 2025 20:14:11 GMT